Location: Châteauvieux
(47.2310°N, 1.3828°E)
Time: 00:41:55
(UTC+00:00)

Cosmos 2322 Rocket - Pass Details

Date: 15 May 2026
Orbit: 831 x 850 km, 71.0° (Epoch: 9 June)

Event Time Altitude Azimuth Distance (km) Brightness Sun altitude
Rises 20:33:22 0° 336° (NNW) 3,406 6.8 -10.3°
Reaches altitude 10° 20:35:57 10° 343° (NNW) 2,470 5.7 -10.6°
Maximum altitude 20:41:20 42° 54° (NE) 1,185 2.9 -11.3°
Enters shadow 20:45:45 15° 121° (ESE) 2,139 3.7 -11.8°
